Regional Weather Roundup
Issued by NWS Albany, NY

Home | Current Version | Previous Version | Graphics & Text | Print | Product List | Glossary Off
Versions: 1 2 3 4 5 6 7 8 9 10 11 12 13 14 15 16 17 18 19 20 21 22 23 24 25 26 27 28 29 30 31 32 33 34 35 36 37 38 39 40 41 42 43 44 45 46 47 48 49 50

000
ASUS41 KALY 020410
RWRALY

NEW YORK STATE HOURLY WEATHER ROUNDUP
NATIONAL WEATHER SERVICE ALBANY NY
1200 AM EDT SAT AUG 02 2014

NOTE: "FAIR" INDICATES FEW OR NO CLOUDS BELOW 12,000 FEET WITH NO
SIGNIFICANT WEATHER AND/OR NO OBSTRUCTIONS TO VISIBILITY.

NYZ032-033-038>043-046>054-057>066-NYZ062>081-020500-
EAST


CITY           SKY/WX    TMP DP  RH WIND       PRES   REMARKS
ALBANY         CLOUDY    71  64  78 S5        30.19S
GLENS FALLS    MOCLDY    66  62  87 S5        30.19R
POUGHKEEPSIE   CLOUDY    69  66  90 CALM      30.20R FOG
NEWBURGH       CLEAR     68  66  94 CALM      30.22S
MONTGOMERY     CLOUDY    66  64  93 CALM      30.20S
WHITE PLAINS   CLOUDY    68  65  90 CALM      30.21S
ISLIP          CLOUDY    74  67  78 SE3       30.19F
NEW YORK CITY  CLOUDY    74  63  68 SE6       30.19F
CENTRAL PARK   CLOUDY    73  60  63 CALM      30.22F
$$

NYZ005>009-017-018-044>046-055-056-020500-
CENTRAL


CITY           SKY/WX    TMP DP  RH WIND       PRES   REMARKS
FULTON         MOCLDY    66  61  84 SE3       30.14F
SYRACUSE       MOCLDY    70  62  76 S3        30.15S
ROME           PTCLDY    69  62  78 E7        30.18R
ELMIRA         MOCLDY    64  61  90 CALM      30.17R
BINGHAMTON     MOCLDY    66  62  87 S6        30.21S
MONTICELLO     CLOUDY    63  63 100 CALM      30.25S
$$

NYZ026>034-041>043-020500-
NORTH


CITY           SKY/WX    TMP DP  RH WIND       PRES   REMARKS
WATERTOWN      PTCLDY    66  61  84 CALM      30.13R
FORT DRUM      NOT AVBL
MASSENA        CLEAR     59  58  96 CALM      30.14S FOG
SARANAC LAKE   CLEAR     54  54 100 CALM      30.20R FOG
PLATTSBURGH    PTCLDY    64  63  96 CALM      30.15R
$$

NYZ001>004-010>016-019>021-020500-
WEST


CITY           SKY/WX    TMP DP  RH WIND       PRES   REMARKS
NIAGARA FALLS  CLEAR     64  61  90 CALM      30.11F
BUFFALO        PTCLDY    68  63  84 SE8       30.13S
DUNKIRK        PTCLDY    67  59  75 SE5       30.12S
JAMESTOWN      PTCLDY    64  61  88 NE6       30.17S
WELLSVILLE     CLOUDY    68  59  73 E3        30.22R
ROCHESTER      MOCLDY    65  62  90 CALM      30.14R
PENN YAN       MOCLDY    64  60  87 S6        30.17S
$$

             KEY
       WCI = WIND CHILL INDEX
       VSB = VISIBILITY
       HX  = HEAT INDEX
$$



USA.gov is the U.S. government's official web portal to all federal, state and local government web resources and services.